Rabat-Sale, Morocco

2:41 AM WEST on May 01, 2017 (GMT +0100)
Rabat-Sale

Weather History for GMME - August, 2014

Change the Weather History Date:

Monday, August 11, 2014

  Actual Average Record
Temperature  
Mean Temperature 70 °F -  
Max Temperature 79 °F 78 °F 105 °F (2010)
Min Temperature 62 °F 62 °F 60 °F (1997)
Cooling Degree Days 6    
Growing Degree Days 20 (Base 50)    
Moisture  
Dew Point 63 °F    
Average Humidity 72    
Maximum Humidity 94    
Minimum Humidity 44    
Precipitation  
Precipitation 0.00 in 0.00 in - ()
Sea Level Pressure  
Sea Level Pressure 30.05 in    
Wind  
Wind Speed 3 mph ()    
Max Wind Speed 12 mph    
Max Gust Speed -    
Visibility 5.3 miles    
Events      
Averages and records for this station are not official NWS values.
T = Trace of Precipitation, MM = Missing Value Source: Averaged Metar Reports

Daily Weather History Graph

Daily Weather History Graph

Search for Another Location

Airport or City:

Trip Planner

Search our weather history database for the weather conditions in past years. The results will help you decide how hot, cold, wet, or windy it might be!

Date:

Astronomy

Aug. 11, 2014 Rise Set
Actual Time 6:45 AM WEST 8:18 PM WEST
Civil Twilight 6:18 AM WEST 8:45 PM WEST
Nautical Twilight 5:46 AM WEST 9:17 PM WEST
Astronomical Twilight 5:12 AM WEST 9:50 PM WEST
Moon 8:43 PM WEST (8/11) 7:29 AM WEST (8/11)
Length of Visible Light 14h 26m
Length of Day
13h 33m
Full, 99% of the Moon is Illuminated
Aug 11
Full
Aug 17
Last Quarter
Aug 25
New
Sep 2
First Quarter
Sep 9
Full

Hourly Weather History & Observations

Time (WEST) Temp. Dew Point Humidity Pressure Visibility Wind Dir Wind Speed Gust Speed Precip Events Conditions
12:00 AM 66.2 °F 64.4 °F 94% 30.06 in 3.7 mi Calm Calm - N/A   Mostly Cloudy
12:30 AM 66.2 °F 62.6 °F 88% 30.06 in 3.7 mi Calm Calm - N/A   Mostly Cloudy
1:00 AM 66 °F 63 °F 86% 30.06 in 4 mi Calm Calm - -   Mostly Cloudy
1:00 AM 66.2 °F 62.6 °F 88% 30.04 in 3.7 mi Calm Calm - N/A   Mostly Cloudy
1:30 AM 66.2 °F 64.4 °F 94% 30.04 in 3.7 mi Calm Calm - N/A   Mostly Cloudy
2:00 AM 68.0 °F 66.2 °F 94% 30.04 in 3.7 mi SE 2.3 mph - N/A   Mostly Cloudy
2:30 AM 68.0 °F 64.4 °F 88% 30.04 in 3.7 mi Calm Calm - N/A   Mostly Cloudy
3:30 AM 69.8 °F 64.4 °F 83% 30.04 in 3.7 mi East 2.3 mph - N/A   Mostly Cloudy
4:00 AM 69 °F 63 °F 76% 30.03 in 4 mi NE 1.2 mph - -   Mostly Cloudy
4:00 AM 69.8 °F 62.6 °F 78% 30.04 in 3.7 mi Variable 1.2 mph - N/A   Mostly Cloudy
5:00 AM 69.8 °F 62.6 °F 78% 30.04 in 3.7 mi Variable 2.3 mph - N/A   Mostly Cloudy
5:30 AM 69.8 °F 62.6 °F 78% 30.04 in 3.7 mi Calm Calm - N/A   Mostly Cloudy
6:00 AM 68.0 °F 60.8 °F 78% 30.04 in 3.7 mi Calm Calm - N/A   Mostly Cloudy
6:30 AM 66.2 °F 60.8 °F 83% 30.01 in 3.7 mi Calm Calm - N/A   Mostly Cloudy
7:00 AM 64 °F 60 °F 82% 30.04 in 4 mi Calm Calm - -   Partly Cloudy
7:00 AM 64.4 °F 59.0 °F 83% 30.04 in 3.7 mi Calm Calm - N/A   Scattered Clouds
7:30 AM 62.6 °F 60.8 °F 94% 30.04 in 5.0 mi Calm Calm - N/A   Scattered Clouds
8:00 AM 66.2 °F 62.6 °F 88% 30.04 in 5.0 mi Calm Calm - N/A   Scattered Clouds
8:30 AM 71.6 °F 62.6 °F 73% 30.04 in 6.2 mi Variable 1.2 mph - N/A   Scattered Clouds
9:00 AM 73.4 °F 62.6 °F 69% 30.04 in 6.2 mi NNW 4.6 mph - N/A   Scattered Clouds
9:30 AM 73.4 °F 62.6 °F 69% 30.06 in 6.2 mi NW 4.6 mph - N/A   Scattered Clouds
10:00 AM 75 °F 62 °F 54% 30.06 in 6 mi NNW 4.6 mph - -   Partly Cloudy
10:00 AM 75.2 °F 62.6 °F 65% 30.06 in 6.2 mi NNW 4.6 mph - N/A   Partly Cloudy
10:30 AM 75.2 °F 60.8 °F 61% 30.06 in 6.2 mi NNW 5.8 mph - N/A   Partly Cloudy
11:00 AM 75.2 °F 60.8 °F 61% 30.06 in 6.2 mi NW 4.6 mph - N/A   Partly Cloudy
11:30 AM 77.0 °F 60.8 °F 57% 30.06 in 6.2 mi Variable 6.9 mph - N/A   Partly Cloudy
12:00 PM 77.0 °F 60.8 °F 57% 30.06 in 6.2 mi WNW 6.9 mph - N/A   Partly Cloudy
12:30 PM 78.8 °F 60.8 °F 54% 30.06 in - NW 5.8 mph - N/A   Clear
1:00 PM 79 °F 61 °F 44% 30.06 in 6 mi NW 9.2 mph - -  
1:00 PM 78.8 °F 60.8 °F 54% 30.06 in - NW 9.2 mph - N/A   Clear
1:30 PM 78.8 °F 62.6 °F 57% 30.06 in - NW 9.2 mph - N/A   Clear
2:00 PM 78.8 °F 60.8 °F 54% 30.06 in - NW 10.4 mph - N/A   Clear
2:30 PM 78.8 °F 62.6 °F 57% 30.04 in - NW 10.4 mph - N/A   Clear
3:00 PM 78.8 °F 64.4 °F 61% 30.04 in - NNW 10.4 mph - N/A   Clear
3:30 PM 78.8 °F 64.4 °F 61% 30.04 in - NW 10.4 mph - N/A   Clear
4:00 PM 78 °F 65 °F 56% 30.04 in 6 mi NNW 11.5 mph - -  
4:00 PM 78.8 °F 64.4 °F 61% 30.04 in - NNW 11.5 mph - N/A   Clear
4:30 PM 78.8 °F 64.4 °F 61% 30.04 in 6.2 mi NNW 11.5 mph - N/A   Partly Cloudy
5:00 PM 77.0 °F 66.2 °F 69% 30.04 in 6.2 mi NW 11.5 mph - N/A   Scattered Clouds
5:30 PM 77.0 °F 64.4 °F 65% 30.04 in 6.2 mi North 11.5 mph - N/A   Scattered Clouds
6:00 PM 75.2 °F 66.2 °F 73% 30.04 in 6.2 mi NNW 10.4 mph - N/A   Scattered Clouds
6:30 PM 75.2 °F 66.2 °F 73% 30.04 in 6.2 mi North 11.5 mph - N/A   Scattered Clouds
7:00 PM 74 °F 65 °F 66% 30.03 in 6 mi NNW 9.2 mph - -   Partly Cloudy
7:00 PM 75.2 °F 64.4 °F 69% 30.04 in 6.2 mi NNW 9.2 mph - N/A   Scattered Clouds
7:30 PM 73.4 °F 64.4 °F 73% 30.04 in 6.2 mi NNW 9.2 mph - N/A   Mostly Cloudy
8:00 PM 73.4 °F 64.4 °F 73% 30.04 in 6.2 mi North 6.9 mph - N/A   Mostly Cloudy
8:30 PM 73.4 °F 66.2 °F 78% 30.04 in 6.2 mi NNW 6.9 mph - N/A   Mostly Cloudy
9:00 PM 73.4 °F 64.4 °F 73% 30.04 in 6.2 mi NNW 5.8 mph - N/A   Mostly Cloudy
9:30 PM 73.4 °F 64.4 °F 73% 30.06 in 6.2 mi North 4.6 mph - N/A   Mostly Cloudy
10:00 PM 72 °F 65 °F 72% 30.07 in 6 mi NNW 4.6 mph - -   Mostly Cloudy
10:00 PM 73.4 °F 64.4 °F 73% 30.06 in 6.2 mi NNW 4.6 mph - N/A   Mostly Cloudy
10:30 PM 73.4 °F 64.4 °F 73% 30.06 in 6.2 mi NNW 4.6 mph - N/A   Mostly Cloudy
11:00 PM 71.6 °F 64.4 °F 78% 30.06 in 6.2 mi NNW 5.8 mph - N/A   Mostly Cloudy
11:30 PM 73.4 °F 64.4 °F 73% 30.06 in 6.2 mi NNW 5.8 mph - N/A   Mostly Cloudy